This is the latest recevied weather packets stored in our database for station/object M0UPS-13. If no packets are shown the sender has not sent any weather packets the latest 10 day(s).
| Time | Temp. | Humidity | Pressure | Rain* | Wind** | Luminosity | Snow |
|---|---|---|---|---|---|---|---|
| 1777493402 | 12.78° C | 54% | 1023.5 hPa | 0 mm | - | 0 W/m² | - |
| 1777493103 | 12.78° C | 53% | 1023.5 hPa | 0 mm | - | 0 W/m² | - |
| 1777492802 | 12.78° C | 53% | 1023.4 hPa | 0 mm | - | 0 W/m² | - |
| 1777492503 | 12.78° C | 53% | 1023.1 hPa | 0 mm | - | 0 W/m² | - |
| 1777492202 | 12.78° C | 52% | 1023.1 hPa | 0 mm | - | 0 W/m² | - |
| 1777491902 | 12.78° C | 52% | 1023.2 hPa | 0 mm | - | 0 W/m² | - |
| 1777491602 | 12.78° C | 52% | 1023.1 hPa | 0 mm | - | 0 W/m² | - |
| 1777491303 | 12.78° C | 52% | 1023 hPa | 0 mm | - | 0 W/m² | - |
| 1777491002 | 13.33° C | 51% | 1023.1 hPa | 0 mm | - | 1 W/m² | - |
| 1777490702 | 13.33° C | 51% | 1023 hPa | 0 mm | - | 2 W/m² | - |
| 1777490402 | 13.33° C | 50% | 1022.8 hPa | 0 mm | - | 3 W/m² | - |
| 1777490103 | 13.33° C | 50% | 1023.1 hPa | 0 mm | - | 4 W/m² | - |
| 1777489802 | 13.33° C | 50% | 1022.8 hPa | 0 mm | - | 5 W/m² | - |
| 1777489504 | 13.33° C | 49% | 1022.8 hPa | 0 mm | - | 6 W/m² | - |
| 1777489202 | 13.89° C | 49% | 1022.8 hPa | 0 mm | - | 8 W/m² | - |
| 1777488902 | 13.89° C | 48% | 1022.7 hPa | 0 mm | - | 10 W/m² | - |
| 1777488602 | 13.89° C | 47% | 1022.6 hPa | 0 mm | - | 11 W/m² | - |
| 1777488303 | 13.89° C | 47% | 1022.6 hPa | 0 mm | - | 13 W/m² | - |
| 1777488003 | 14.44° C | 47% | 1022.5 hPa | 0 mm | - | 16 W/m² | - |
| 1777487702 | 14.44° C | 46% | 1022.7 hPa | 0 mm | - | 19 W/m² | - |
| 1777487402 | 14.44° C | 46% | 1022.5 hPa | 0 mm | - | 24 W/m² | - |
| 1777487103 | 14.44° C | 46% | 1022.5 hPa | 0 mm | - | 29 W/m² | - |
| 1777486802 | 14.44° C | 45% | 1022.6 hPa | 0 mm | - | 34 W/m² | - |
| 1777486503 | 14.44° C | 45% | 1022.3 hPa | 0 mm | - | 39 W/m² | - |
| 1777486202 | 15° C | 44% | 1022.3 hPa | 0 mm | - | 43 W/m² | - |
* Rain latest hour (hover to see other rain measurements)
** Current wind speed in m/s (hover to see current wind gust speed)